DW8722 Weather Reports


time (UTC)temp
C
wind
direction
speed
KPH
gust
KPH
rain 1hr
cm
rain 24hr
cm
rain mn
cm
humidity
%
barometer
mb
20260503053857 12 138 0.0 0.0 0.00 0.00 0.00 81 1020.0
20260503052912 12 138 0.0 0.0 0.00 0.00 0.00 80 1019.9
20260503051909 12 138 0.0 0.0 0.00 0.00 0.00 79 1019.8
20260503050923 12 138 0.0 0.0 0.00 0.00 0.00 79 1019.8
20260503045928 13 138 0.0 1.6 0.00 0.00 0.00 78 1019.8
20260503043740 13 140 0.0 0.0 0.00 0.00 0.00 77 1019.7
20260503042800 13 140 0.0 0.0 0.00 0.00 0.00 77 1019.7
20260503041811 14 140 0.0 0.0 0.00 0.00 0.00 75 1019.7
20260503040802 14 140 0.0 0.0 0.00 0.00 0.00 74 1019.7
20260503035751 14 140 0.0 0.0 0.00 0.00 0.00 74 1019.7
20260503034740 15 132 0.0 0.0 0.00 0.00 0.00 74 1019.7
20260503033708 15 132 1.6 4.8 0.00 0.00 0.00 74 1019.7
20260503032726 15 113 0.0 3.2 0.00 0.00 0.00 73 1019.6
20260503031720 15 111 0.0 0.0 0.00 0.00 0.00 73 1019.6
20260503030740 15 111 0.0 0.0 0.00 0.00 0.00 73 1019.6
20260503025724 16 111 0.0 0.0 0.00 0.00 0.00 72 1019.4
20260503024747 16 110 0.0 1.6 0.00 0.00 0.00 71 1019.4
20260503023732 16 110 0.0 0.0 0.00 0.00 0.00 71 1019.2
20260503022703 17 187 0.0 0.0 0.00 0.00 0.00 64 1019.1
20260503021717 17 187 0.0 0.0 0.00 0.00 0.00 62 1019.0
20260503013346 20 187 0.0 0.0 0.00 0.00 0.00 56 1018.7
20260503012356 21 276 0.0 0.0 0.00 0.00 0.00 56 1018.6
20260503011347 21 276 0.0 0.0 0.00 0.00 0.00 56 1018.6
20260503010315 22 276 0.0 0.0 0.00 0.00 0.00 57 1018.5
20260503005316 22 276 0.0 0.0 0.00 0.00 0.00 54 1018.4
20260503004242 23 279 0.0 0.0 0.00 0.00 0.00 48 1018.4
20260503003302 23 272 0.0 0.0 0.00 0.00 0.00 44 1018.3
20260503001109 23 329 0.0 0.0 0.00 0.00 0.00 41 1018.4
20260503000121 23 279 0.0 0.0 0.00 0.00 0.00 42 1018.4
20260502235106 23 298 0.0 0.0 0.00 0.00 0.00 42 1018.5
20260502234119 23 273 1.6 8.0 0.00 0.00 0.00 42 1018.5
20260502231950 24 315 1.6 12.9 0.00 0.00 0.00 40 1018.6
20260502230921 24 245 3.2 11.3 0.00 0.00 0.00 40 1018.6
20260502225927 23 234 1.6 9.7 0.00 0.00 0.00 40 1018.6
20260502224943 24 211 0.0 9.7 0.00 0.00 0.00 41 1018.6
20260502223940 23 319 6.4 20.9 0.00 0.00 0.00 39 1018.7
20260502221834 23 5 4.8 12.9 0.00 0.00 0.00 40 1018.8
20260502220839 23 319 8.0 16.1 0.00 0.00 0.00 39 1018.9
20260502215820 23 305 1.6 16.1 0.00 0.00 0.00 39 1019.0
20260502213657 23 333 3.2 12.9 0.00 0.00 0.00 40 1019.2
20260502212649 23 279 9.7 27.4 0.00 0.00 0.00 39 1019.4
20260502204205 23 308 4.8 22.5 0.00 0.00 0.00 43 1019.9
20260502203201 23 302 6.4 22.5 0.00 0.00 0.00 38 1020.0
20260502202211 23 329 1.6 9.7 0.00 0.00 0.00 40 1020.0
20260502200137 23 313 4.8 16.1 0.00 0.00 0.00 40 1020.3
20260502195139 23 302 3.2 16.1 0.00 0.00 0.00 43 1020.4
20260502194106 23 22 4.8 14.5 0.00 0.00 0.00 38 1020.5
20260502193108 22 300 4.8 14.5 0.00 0.00 0.00 41 1020.6
20260502192114 23 330 4.8 14.5 0.00 0.00 0.00 40 1020.7
20260502191139 22 267 4.8 14.5 0.00 0.00 0.00 42 1020.8
20260502190144 22 284 4.8 17.7 0.00 0.00 0.00 42 1021.0
20260502185123 22 223 4.8 17.7 0.00 0.00 0.00 39 1021.1
20260502184051 22 331 4.8 16.1 0.00 0.00 0.00 44 1021.2
20260502183019 22 294 4.8 16.1 0.00 0.00 0.00 40 1021.4
20260502182033 22 323 4.8 16.1 0.00 0.00 0.00 41 1021.5
20260502181044 22 277 0.0 6.4 0.00 0.00 0.00 39 1021.6
20260502163932 20 42 3.2 8.0 0.00 0.00 0.00 41 1022.2
20260502162912 20 344 1.6 6.4 0.00 0.00 0.00 41 1022.3
20260502161931 20 46 1.6 11.3 0.00 0.00 0.00 42 1022.3
20260502160926 20 290 4.8 11.3 0.00 0.00 0.00 41 1022.3
20260502151819 18 28 3.2 12.9 0.00 0.00 0.00 52 1022.2
20260502150823 18 318 3.2 12.9 0.00 0.00 0.00 54 1022.2
20260502130605 10 0 0.0 1.6 0.00 0.00 0.00 90 1021.2
20260502123643 8 337 0.0 0.0 0.00 0.00 0.00 89 1020.9
20260502122653 8 337 0.0 0.0 0.00 0.00 0.00 89 1020.8
20260502121639 7 317 0.0 1.6 0.00 0.00 0.00 90 1020.5
20260502120632 7 325 1.6 4.8 0.00 0.00 0.00 90 1020.5
20260502115604 7 321 0.0 4.8 0.00 0.00 0.00 90 1020.3
20260502114605 7 305 0.0 1.6 0.00 0.00 0.00 89 1020.3
20260502113549 7 294 0.0 0.0 0.00 0.00 0.00 90 1020.0
20260502111432 8 295 0.0 0.0 0.00 0.00 0.00 89 1019.8
20260502110455 8 292 0.0 0.0 0.00 0.00 0.00 90 1019.6
20260502105437 8 298 0.0 0.0 0.00 0.00 0.00 90 1019.5
20260502104439 8 307 0.0 0.0 0.00 0.00 0.00 90 1019.3
20260502103448 8 313 0.0 0.0 0.00 0.00 0.00 90 1019.2
20260502102500 8 285 0.0 0.0 0.00 0.00 0.00 90 1019.3
20260502101439 8 285 0.0 0.0 0.00 0.00 0.00 90 1019.2
20260502100408 9 285 0.0 0.0 0.00 0.00 0.00 90 1019.2
20260502091309 8 281 0.0 1.6 0.00 0.00 0.00 90 1019.1
20260502090255 8 279 0.0 1.6 0.00 0.00 0.00 90 1019.0
20260502071130 10 318 0.0 0.0 0.00 0.00 0.00 92 1019.0
20260502065050 10 298 0.0 0.0 0.00 0.00 0.00 91 1019.0
20260502064100 10 284 0.0 0.0 0.00 0.00 0.00 91 1019.0
20260502063118 10 286 0.0 0.0 0.00 0.00 0.00 91 1019.0
20260502062143 10 286 0.0 0.0 0.00 0.00 0.00 90 1019.1